Weather History for Southend-On-Sea, United Kingdom

Change the Weather History Date:

Tuesday, July 5, 2011

  Actual Average Record
Temperature  
Mean Temperature 62 °F -  
Max Temperature 77 °F 70 °F 78 °F (2001)
Min Temperature 48 °F 55 °F 48 °F (2011)
Degree Days  
Heating Degree Days 2    
Growing Degree Days 12 (Base 50)    
Moisture  
Dew Point 54 °F    
Average Humidity 66    
Maximum Humidity 94    
Minimum Humidity 36    
Precipitation  
Precipitation 0.00 in - - ()
Sea Level Pressure  
Sea Level Pressure 29.86 in    
Wind  
Wind Speed 4 mph ()    
Max Wind Speed 21 mph    
Max Gust Speed -    
Visibility 5.9 miles    
Events Rain    
Averages and records for this station are not official NWS values.
T = Trace of Precipitation, MM = Missing Value Source: Averaged Metar Reports

Daily Weather History Graph

Daily Weather History Graph

Search for Another Location

Airport:

Trip Planner

Search our weather history database for the weather conditions in past years. The results will help you decide how hot, cold, wet, or windy it might be!

Date:

Astronomy

Jul. 05, 2011 Rise Set
Actual Time 4:46 AM BST 9:16 PM BST
Civil Twilight 3:59 AM BST 10:03 PM BST
Nautical Twilight 2:48 AM BST 11:13 PM BST
Astronomical Twilight 1:34 AM BST 12:29 AM BST
Moon 9:59 AM BST (7/5) 11:00 PM BST (7/5)
Length of Visible Light 18h 03m
Length of Day
16h 29m
Waxing Crescent, 20% of the Moon is Illuminated
Jul 5
Waxing Crescent
Jul 8
First Quarter
Jul 15
Full
Jul 23
Last Quarter
Jul 30
New

Hourly Weather History & Observations

Time (BST) Temp. Dew Point Humidity Pressure Visibility Wind Dir Wind Speed Gust Speed Precip Events Conditions
12:50 AM 55.4 °F 51.8 °F 88% 30.01 in - Calm Calm - N/A   Clear
1:50 AM 53.6 °F 50.0 °F 88% 30.01 in - East 2.3 mph - N/A   Clear
2:50 AM 53.6 °F 50.0 °F 88% 30.01 in - East 2.3 mph - N/A   Clear
3:50 AM 50.0 °F 46.4 °F 87% 29.98 in - Calm Calm - N/A   Clear
4:50 AM 48.2 °F 46.4 °F 93% 29.95 in - Calm Calm - N/A   Clear
5:50 AM 50.0 °F 46.4 °F 87% 29.95 in - Calm Calm - N/A   Clear
6:50 AM 53.6 °F 51.8 °F 94% 29.95 in 4.3 mi Calm Calm - N/A   Scattered Clouds
7:20 AM 62.6 °F 57.2 °F 82% 29.92 in 5.0 mi East 6.9 mph - N/A   Partly Cloudy
7:50 AM 64.4 °F 57.2 °F 77% 29.92 in 5.6 mi East 6.9 mph - N/A   Partly Cloudy
8:20 AM 64.4 °F 57.2 °F 77% 29.92 in 5.6 mi East 5.8 mph - N/A   Partly Cloudy
8:50 AM 66.2 °F 57.2 °F 73% 29.92 in 5.6 mi East 6.9 mph - N/A   Partly Cloudy
9:20 AM 68.0 °F 57.2 °F 68% 29.89 in 5.6 mi ESE 5.8 mph - N/A   Unknown
9:50 AM 68.0 °F 57.2 °F 68% 29.89 in 5.6 mi ESE 5.8 mph - N/A   Unknown
10:20 AM 68.0 °F 59.0 °F 73% 29.89 in 5.6 mi South 5.8 mph - N/A   Unknown
10:50 AM 71.6 °F 59.0 °F 64% 29.89 in - Calm Calm - N/A   Clear
11:20 AM 73.4 °F 57.2 °F 57% 29.86 in 6.2 mi SSE 4.6 mph - N/A   Partly Cloudy
11:50 AM 73.4 °F 55.4 °F 53% 29.86 in 6.2 mi Variable 3.5 mph - N/A   Partly Cloudy
12:20 PM 75.2 °F 55.4 °F 50% 29.86 in 6.2 mi South 6.9 mph - N/A   Partly Cloudy
12:50 PM 75.2 °F 55.4 °F 50% 29.86 in - Calm Calm - N/A   Clear
1:50 PM 77.0 °F 51.8 °F 41% 29.83 in 6.2 mi South 5.8 mph - N/A   Partly Cloudy
2:20 PM 77.0 °F 55.4 °F 47% 29.80 in 6.2 mi SSE 5.8 mph - N/A   Partly Cloudy
2:50 PM 77.0 °F 53.6 °F 44% 29.80 in 6.2 mi Variable 2.3 mph - N/A   Partly Cloudy
3:20 PM 77.0 °F 59.0 °F 54% 29.80 in 6.2 mi East 8.1 mph - N/A   Partly Cloudy
3:50 PM 75.2 °F 59.0 °F 57% 29.80 in 6.2 mi East 5.8 mph - N/A   Partly Cloudy
4:20 PM 77.0 °F 57.2 °F 50% 29.80 in 6.2 mi South 5.8 mph - N/A   Partly Cloudy
4:50 PM 77.0 °F 53.6 °F 44% 29.77 in - South 8.1 mph - N/A   Clear
5:20 PM 77.0 °F 48.2 °F 36% 29.77 in - South 8.1 mph - N/A   Clear
5:50 PM 75.2 °F 48.2 °F 38% 29.77 in - South 6.9 mph - N/A   Clear
6:20 PM 73.4 °F 48.2 °F 41% 29.77 in - SW 10.4 mph - N/A   Clear
6:50 PM 68.0 °F 55.4 °F 64% 29.77 in 6.2 mi WSW 20.7 mph - N/A Rain Light Rain
7:20 PM 64.4 °F 51.8 °F 64% 29.80 in 6.2 mi SW 12.7 mph - N/A Rain Light Rain
7:50 PM 64.4 °F 53.6 °F 68% 29.77 in 6.2 mi SW 5.8 mph - N/A Rain Light Rain
8:20 PM 64.4 °F 51.8 °F 64% 29.77 in 6.2 mi WSW 6.9 mph - N/A Rain Light Rain
8:50 PM 60.8 °F 53.6 °F 77% 29.80 in 5.6 mi SW 8.1 mph - N/A Rain Light Rain
9:50 PM 60.8 °F 55.4 °F 82% 29.77 in 6.2 mi ESE 2.3 mph - N/A   Scattered Clouds
10:50 PM 60.8 °F 55.4 °F 82% 29.77 in 6.2 mi South 9.2 mph - N/A   Mostly Cloudy
11:50 PM 60.8 °F 55.4 °F 82% 29.74 in 6.2 mi SSW 13.8 mph - N/A   Mostly Cloudy